Regional Weather Roundup
Issued by NWS

Home | Current Version | Previous Version | Graphics & Text | Print | Product List | Glossary On
Versions: 1 2 3 4 5 6 7 8 9 10 11 12 13 14 15 16 17 18 19 20 21 22 23 24 25 26 27 28 29 30 31 32 33 34 35 36 37 38 39 40 41 42 43 44 45 46 47 48 49 50
000
ASUS45 KSLC 301610
RWRUT

UTAH REGIONAL WEATHER ROUNDUP
NATIONAL WEATHER SERVICE SALT LAKE CITY UT
1000 AM MDT THU JUL 30 2015

UTZ001>011-023>025-301700-

NORTHERN UTAH

CITY           SKY/WX    TMP DP  RH WIND       PRES   REMARKS
BRIGHAM CITY   SUNNY     69  32  25 CALM      30.34S
HILL AFB       NOT AVBL
LOGAN          SUNNY     65  35  33 VRB5      30.36S
OGDEN          SUNNY     74  34  23 N12       30.33R
PROVO AIRPORT  SUNNY     72  37  28 CALM      30.34S
SALT LAKE CITY MOSUNNY   75  35  23 CALM      30.30S
VERNAL         SUNNY     73  28  18 CALM      30.37S
WENDOVER       SUNNY     77  30  18 S5        30.31S
HEBER CITY     SUNNY     61  32  33 CALM      30.43F
WEST JORDAN    SUNNY     75  36  23 CALM      30.33S

$$

UTZ012>022-026-027-301700-

SOUTHERN/CENTRAL UTAH

CITY           SKY/WX    TMP DP  RH WIND       PRES   REMARKS
BLANDING       MOSUNNY   74  53  47 CALM      30.47S
BRYCE CANYON   SUNNY     70  31  23 CALM      30.50S
CEDAR CITY     SUNNY     75  22  13 W3        30.34S
DELTA          SUNNY     77  30  18 NE10      30.31F
HANKSVILLE     SUNNY     81  28  15 CALM      30.30S
MILFORD        SUNNY     79  29  16 N10       30.31S
MOAB/CYNLANDS  SUNNY     83  37  19 SE7       30.27S
PRICE          SUNNY     77  21  12 CALM      30.38S
ST GEORGE      SUNNY     84  39  20 SW3       30.17R
KANAB          MOSUNNY   81  54  39 CALM      30.35S

$$

REGIONAL REPORTS     COLORADO/ARIZONA

CITY           SKY/WX    TMP DP  RH WIND       PRES   REMARKS
CRAIG, CO      SUNNY     68  33  27 CALM      30.44S
GRAND JUNCTION SUNNY     76  31  19 SE7       30.32S
RIFLE          SUNNY     72  36  26 VRB3      30.38F
MONTROSE       SUNNY     74  40  29 MISG      30.40F
CORTEZ         SUNNY     75  50  41 VRB3      30.40F
PAGE, AZ       SUNNY     80  56  43 VRB3      30.26S
GRAND CANYON   MOSUNNY   75  50  41 NE3       30.42S
KINGMAN        CLOUDY    86  55  34 CALM      30.18F
FLAGSTAFF      CLOUDY    64  53  67 E8        30.45S

$$

REGIONAL REPORTS    NEVADA/IDAHO/WYOMING

CITY           SKY/WX    TMP DP  RH WIND       PRES   REMARKS
LAS VEGAS, NV  PTSUNNY   94  49  21 CALM      30.04R HX  90
ELY            SUNNY     71  25  17 NE5       30.42F
ELKO           SUNNY     71  33  24 E5        30.35S
POCATELLO, ID  SUNNY     68  42  38 N5        30.36S
BURLEY         SUNNY     68  44  42 E5        30.32S
EVANSTON, WY   SUNNY     66  28  24 VRB3      30.51R
ROCK SPRINGS   SUNNY     68  29  23 VRB5      30.48S
KEMMERER       SUNNY     66  28  24 CALM      30.52S

$$


USA.gov is the U.S. government's official web portal to all federal, state and local government web resources and services.